Fort Smith, AR

7:27 PM CDT on April 23, 2018 (GMT -0500)
Fort Smith Regional

Weather History for KFSM - April, 2014

Change the Weather History Date:

Monday, April 21, 2014

  Actual Average Record
Temperature  
Mean Temperature 65 °F 63 °F  
Max Temperature 71 °F 75 °F 91 °F (1965)
Min Temperature 59 °F 51 °F 34 °F (1978)
Degree Days  
Heating Degree Days 0 4  
Month to date heating degree days 124 128  
Since 1 July heating degree days 3528 3187  
Cooling Degree Days 0 2  
Month to date cooling degree days 33 32  
Year to date cooling degree days 33 44  
Growing Degree Days 16 (Base 50)    
Moisture  
Dew Point 61 °F    
Average Humidity 85    
Maximum Humidity 97    
Minimum Humidity 73    
Precipitation  
Precipitation 0.15 in 0.15 in 1.78 in (2017)
Month to date precipitation 2.17 2.87  
Year to date precipitation 7.79 12.29  
Sea Level Pressure  
Sea Level Pressure 30.00 in    
Wind  
Wind Speed 2 mph (East)    
Max Wind Speed 8 mph    
Max Gust Speed 10 mph    
Visibility 8 miles    
Events Rain    
T = Trace of Precipitation, MM = Missing Value Source: NWS Daily Summary

Daily Weather History Graph

Daily Weather History Graph

Search for Another Location

Airport or City:

Astronomy

Apr. 21, 2014 Rise Set
Actual Time 6:37 AM CDT 7:55 PM CDT
Civil Twilight 6:11 AM CDT 8:21 PM CDT
Nautical Twilight 5:39 AM CDT 8:53 PM CDT
Astronomical Twilight 5:06 AM CDT 9:26 PM CDT
Moon 1:22 AM CDT (4/21) 12:07 PM CDT (4/21)
Length of Visible Light 14h 10m
Length of Day
13h 17m
Waning Gibbous, 57% of the Moon is Illuminated
Apr 21
Waning Gibbous
Apr 22
Last Quarter
Apr 29
New
May 6
First Quarter
May 14
Full

Hourly Weather History & Observations

Time (CDT) Temp. Dew Point Humidity Pressure Visibility Wind Dir Wind Speed Gust Speed Precip Events Conditions
12:53 AM 64.9 °F 61.0 °F 87% 30.01 in 9.0 mi East 4.6 mph - N/A   Clear
1:53 AM 64.0 °F 61.0 °F 90% 30.02 in 5.0 mi East 4.6 mph - N/A   Mostly Cloudy
2:53 AM 64.9 °F 62.1 °F 90% 30.03 in 7.0 mi NNW 3.5 mph - N/A   Overcast
3:53 AM 63.0 °F 61.0 °F 93% 30.01 in 5.0 mi East 3.5 mph - N/A   Clear
4:53 AM 63.0 °F 61.0 °F 93% 30.01 in 5.0 mi Calm Calm - N/A   Scattered Clouds
5:53 AM 62.1 °F 60.1 °F 93% 30.01 in 4.0 mi Calm Calm - N/A   Mostly Cloudy
6:53 AM 62.1 °F 60.1 °F 93% 30.02 in 4.0 mi ENE 3.5 mph - N/A   Overcast
7:53 AM 64.0 °F 61.0 °F 90% 30.03 in 5.0 mi Calm Calm - N/A   Overcast
8:53 AM 66.0 °F 61.0 °F 84% 30.03 in 7.0 mi Calm Calm - N/A   Mostly Cloudy
9:53 AM 69.1 °F 61.0 °F 75% 30.03 in 10.0 mi Calm Calm - N/A   Overcast
10:53 AM 69.1 °F 62.1 °F 78% 30.03 in 8.0 mi Calm Calm - 0.00 in Rain Light Rain
11:43 AM 66.0 °F 61.0 °F 84% 30.04 in 1.8 mi Calm Calm - 0.05 in Rain Rain
11:50 AM 66.2 °F 62.6 °F 88% 30.04 in 3.0 mi ENE 3.5 mph - 0.07 in Rain Light Rain
11:53 AM 66.0 °F 61.0 °F 84% 30.03 in 4.0 mi ENE 3.5 mph - 0.07 in Rain Light Rain
12:53 PM 66.9 °F 60.1 °F 79% 30.02 in 8.0 mi Calm Calm - 0.03 in Rain Light Rain
1:53 PM 66.0 °F 61.0 °F 84% 30.01 in 7.0 mi Calm Calm - 0.03 in Rain Light Rain
2:48 PM 66.2 °F 62.6 °F 88% 29.99 in 10.0 mi ESE 4.6 mph - N/A   Scattered Clouds
2:53 PM 66.9 °F 63.0 °F 87% 29.99 in 10.0 mi ENE 4.6 mph - 0.02 in   Scattered Clouds
3:05 PM 66.9 °F 62.1 °F 84% 29.99 in 10.0 mi East 3.5 mph - N/A   Mostly Cloudy
3:53 PM 68.0 °F 61.0 °F 78% 29.97 in 10.0 mi Calm Calm - N/A   Mostly Cloudy
4:00 PM 68.0 °F 60.1 °F 76% 29.98 in 10.0 mi Calm Calm - N/A   Overcast
4:39 PM 69.1 °F 60.1 °F 73% 29.96 in 10.0 mi Calm Calm - N/A   Overcast
4:48 PM 69.8 °F 60.8 °F 73% 29.96 in 10.0 mi Calm Calm - N/A   Overcast
4:53 PM 69.1 °F 60.1 °F 73% 29.95 in 10.0 mi South 4.6 mph - N/A   Mostly Cloudy
5:53 PM 69.1 °F 62.1 °F 78% 29.94 in 10.0 mi ESE 6.9 mph - N/A   Overcast
6:53 PM 68.0 °F 61.0 °F 78% 29.95 in 10.0 mi NE 3.5 mph - N/A   Overcast
7:21 PM 68.0 °F 61.0 °F 78% 29.95 in 10.0 mi Calm Calm - N/A   Overcast
7:53 PM 66.9 °F 61.0 °F 81% 29.95 in 10.0 mi Calm Calm - N/A   Overcast
8:17 PM 66.0 °F 61.0 °F 84% 29.96 in 10.0 mi Calm Calm - N/A   Scattered Clouds
8:53 PM 64.9 °F 61.0 °F 87% 29.98 in 10.0 mi Calm Calm - N/A   Clear
9:32 PM 63.0 °F 60.1 °F 90% 30.00 in 10.0 mi Calm Calm - N/A   Mostly Cloudy
9:53 PM 63.0 °F 60.1 °F 90% 29.99 in 7.0 mi SSW 3.5 mph - N/A   Scattered Clouds
10:53 PM 62.1 °F 60.1 °F 93% 29.99 in 7.0 mi Calm Calm - N/A   Clear
11:53 PM 61.0 °F 59.0 °F 93% 29.99 in 6.0 mi WSW 5.8 mph - N/A   Clear